Location: Brunnen
(48.6541°N, 10.9920°E)
Time: 06:26:32
(UTC+00:00)

Meteor 2-4 Rocket - Pass Details

Date: 01 June 2020
Orbit: 799 x 908 km, 81.2° (Epoch: 04 July)

Event Time Altitude Azimuth Distance (km) Brightness Sun altitude
Rises 19:40:27 0° 187° (S) 3,306 6.4 -4.7°
Reaches altitude 10° 19:42:49 10° 187° (S) 2,374 5.7 -4.9°
Maximum altitude 19:48:09 84° 100° (E) 811 3.6 -5.6°
Drops below altitude 10° 19:53:33 10° 13° (NNE) 2,393 6.5 -6.2°
Sets 19:55:57 0° 13° (NNE) 3,336 7.3 -6.5°
